RH
48 69 85 68 47 31 25 23 20 19 20 18 23 24 26 25 24 26 30 30 30 31 38 39 50 48 40 39 28 11 5 5 10 11 13 10 10 21 46 72 71 63 60 60 60
71 63 86 95 84 66 43 32 26 22 26 31 31 33 34 32 30 32 38 41 38 36 40 44 53 51 39 39 27 11 5 6 10 10 14 10 22 44 72 59 49 60 47 61 77
94 82 87 99 92 89 85 55 41 36 44 45 43 38 40 44 40 42 47 47 43 43 47 52 57 55 42 41 28 13 5 5 10 9 11 9 34 50 73 67 51 56 46 52 70
98 90 99 99 82 96 96 82 64 58 55 50 44 39 40 47 49 51 50 50 48 52 59 59 60 60 47 39 30 10 5 5 10 10 15 16 28 36 62 56 56 50 40 49 49
89 96 88 98 87 90 96 92 83 68 54 53 48 40 33 36 60 57 55 58 52 64 64 68 68 63 49 40 34 13 5 4 13 11 19 26 34 51 57 60 56 27 36 42 45
91 98 98 96 98 90 98 93 82 81 64 56 52 47 39 38 43 61 46 61 54 70 65 72 66 72 58 42 37 22 6 5 12 14 32 46 45 43 50 59 38 32 20 32 38
84 93 96 96 97 97 98 92 96 88 76 62 53 48 48 51 42 60 54 60 54 72 70 76 67 73 68 42 35 20 7 5 10 16 40 50 48 44 39 57 49 41 12 17 29
95 95 90 98 98 97 96 96 95 84 76 62 53 49 52 50 45 54 63 54 38 50 68 74 65 64 73 46 40 18 10 7 8 16 38 62 57 39 46 52 39 34 17 10 20
97 95 86 88 99 97 97 89 96 83 75 73 70 58 62 55 50 51 57 58 43 50 67 56 68 69 66 52 40 20 15 8 9 19 48 81 76 57 52 48 34 33 29 14 18
94 98 100 99 98 97 97 94 95 91 78 67 66 77 70 62 57 50 56 66 52 49 46 29 64 70 57 54 38 33 25 12 11 23 35 41 73 69 61 41 42 42 27 24 15
81 72 86 95 100 97 96 94 79 73 69 75 76 83 78 64 61 55 53 59 56 39 37 38 54 60 83 64 49 46 37 13 10 23 27 39 63 80 56 42 42 35 25 29 16
10 79 50 13 30 95 97 84 84 70 76 77 91 86 80 67 64 61 61 57 53 46 45 51 36 85 90 67 54 52 47 23 14 22 24 50 76 68 45 51 50 37 33 24 27
10 11 51 34 8 13 61 78 83 81 67 85 92 83 76 60 65 64 64 66 58 50 42 41 58 90 82 66 61 57 52 34 14 15 16 28 66 70 42 48 63 55 48 32 25
3 2 5 6 17 12 5 30 56 55 70 63 29 45 78 72 54 52 56 59 55 54 54 42 72 77 64 65 67 61 52 43 32 14 13 31 32 56 81 44 58 67 60 47 27
3 2 2 2 2 6 51 14 7 22 47 33 69 35 32 43 36 41 41 42 46 61 54 48 70 68 84 82 85 70 52 50 45 33 16 18 24 23 32 32 53 71 78 70 56
2 2 2 2 2 2 2 9 9 7 19 33 27 35 35 24 18 16 31 35 38 42 48 61 81 73 80 87 87 80 62 53 51 39 30 25 14 11 21 35 41 64 66 75 70
2 2 2 2 2 2 2 2 3 17 14 10 13 21 20 19 21 16 18 29 28 28 28 38 49 60 76 78 82 74 73 54 50 48 37 28 19 12 21 35 32 46 61 65 70
2 2 2 2 2 2 2 2 2 2 2 2 4 6 10 11 10 13 17 17 16 18 22 30 46 62 68 72 82 81 79 64 56 57 52 28 18 13 14 16 19 38 51 68 56
2 2 2 3 2 2 2 2 2 2 2 2 2 2 4 6 6 6 7 13 15 15 15 19 20 43 55 69 82 86 86 84 70 59 53 37 19 18 14 16 24 48 54 49 59
4 3 2 5 2 3 2 2 2 2 2 2 4 4 3 3 3 4 6 6 8 13 16 18 18 24 40 48 62 85 99 92 77 62 54 40 31 29 17 24 38 39 54 45 43
33 24 6 13 8 4 2 2 2 5 6 7 6 5 5 6 4 3 5 6 7 8 9 11 14 19 27 33 61 82 88 83 78 68 60 45 30 31 21 21 30 42 53 50 45
80 93 20 39 29 10 2 3 15 12 18 16 13 6 8 7 6 8 6 6 7 6 7 8 9 11 24 43 64 90 83 95 90 74 65 58 32 37 30 31 46 59 56 52 55
100 98 54 71 35 18 28 41 28 22 37 37 31 14 7 13 20 22 55 40 23 16 13 10 6 7 16 46 55 48 69 86 89 83 54 64 34 44 41 30 32 31 50 51 57
100 90 93 71 45 66 82 79 52 47 65 53 42 35 18 9 27 77 100 99 68 53 46 25 16 9 7 26 53 46 70 100 100 74 67 45 53 49 37 35 27 39 46 37 56
98 60 64 47 46 59 71 76 66 55 62 59 46 35 26 20 10 23 99 100 99 100 98 74 51 30 20 22 53 54 50 66 45 56 67 61 65 66 52 46 33 32 64 44 52
94 78 73 69 59 65 68 68 77 75 60 58 39 50 35 23 27 15 69 100 98 93 90 100 100 89 35 43 52 61 59 51 70 75 61 80 73 86 72 67 52 53 27 35 26
86 91 97 87 79 57 52 64 64 69 59 54 50 50 43 38 37 28 22 36 59 74 83 66 78 99 98 94 99 51 70 100 100 88 74 72 93 100 79 83 80 67 39 35 48
Wind_Speed
53 49 46 48 45 44 45 45 43 41 38 36 34 33 30 26 27 25 23 24 25 25 23 22 20 21 17 12 14 19 22 18 14 16 15 12 9 11 19 23 21 21 22 26 24
50 51 48 47 45 42 44 45 42 40 38 37 35 33 30 25 26 24 22 22 23 25 23 22 19 20 16 13 13 17 21 17 13 11 11 8 9 16 18 21 21 20 23 19 16
53 51 51 47 44 48 42 42 40 41 39 37 35 33 31 25 24 26 22 22 21 24 24 22 20 19 16 13 13 15 18 18 13 9 9 5 6 11 10 20 23 21 21 11 10
57 55 57 52 55 51 42 39 41 40 40 38 37 35 33 27 24 28 24 22 21 22 22 23 19 20 17 13 12 15 18 16 13 9 4 3 6 12 13 20 20 16 16 15 4
54 55 54 55 56 53 48 44 49 41 43 42 40 36 35 29 25 31 23 23 21 20 21 22 19 21 17 15 11 14 16 14 11 10 5 4 8 14 10 17 17 16 14 13 5
54 56 53 63 59 52 54 48 57 44 44 42 41 38 36 28 35 31 25 23 23 22 18 23 24 17 15 17 12 14 14 14 13 10 7 4 5 12 10 13 13 16 17 11 6
51 54 58 56 60 59 52 57 51 45 46 44 40 41 35 30 37 31 29 26 26 23 20 25 26 16 17 19 14 14 15 14 13 13 7 6 4 6 10 8 14 12 15 13 8
45 48 57 57 59 61 57 47 48 48 48 50 44 40 33 37 35 33 33 29 25 24 24 23 23 20 17 20 15 15 18 16 15 16 7 6 3 2 6 11 10 8 10 11 10
37 41 46 51 58 61 57 50 53 53 51 50 51 45 31 39 36 33 31 31 29 26 26 23 20 20 19 19 18 17 19 17 18 14 14 8 5 1 6 10 7 5 7 9 9
19 25 33 41 56 59 54 53 48 49 49 48 47 46 32 37 37 35 33 36 31 30 28 23 20 19 18 17 19 20 20 17 18 20 19 17 5 1 3 8 11 9 5 4 5
25 26 20 14 27 54 51 50 52 57 59 52 48 49 37 36 37 38 35 36 36 32 29 25 23 13 18 21 22 19 21 18 18 23 23 17 6 10 8 8 8 8 3 3 0
31 24 26 27 24 16 25 44 47 51 47 52 47 44 36 38 39 37 37 36 36 32 32 30 16 16 27 23 22 17 19 19 18 25 27 17 11 13 13 8 11 8 6 0 5
33 31 27 30 29 26 23 22 28 44 49 36 37 37 31 45 34 37 37 37 37 38 34 31 23 26 32 27 24 18 17 19 23 25 28 22 14 15 8 5 8 9 7 4 4
40 35 32 35 32 30 30 27 27 26 34 32 30 32 37 44 41 32 36 36 38 37 35 39 30 32 33 26 24 21 19 23 25 28 29 26 20 16 14 6 6 10 2 4 4
51 47 38 36 36 36 30 31 33 28 34 26 36 36 36 38 35 30 32 36 35 33 38 35 29 31 36 23 30 20 29 24 27 30 29 27 24 15 17 14 9 9 11 6 4
50 51 51 41 39 37 36 35 33 33 35 29 29 33 36 37 36 31 37 36 32 34 37 39 34 38 35 32 35 26 31 29 30 31 29 23 22 18 15 15 12 9 11 7 8
55 53 51 51 46 44 39 38 39 35 36 37 37 33 32 33 37 35 36 34 34 33 33 35 37 38 39 37 34 31 31 32 33 31 25 23 25 20 17 16 15 13 15 14 15
52 53 53 50 54 50 45 43 39 36 41 45 41 39 39 37 35 33 36 40 39 38 36 35 35 34 35 35 30 31 31 37 33 31 27 27 30 21 19 20 15 15 12 14 17
49 52 51 50 54 53 52 49 44 42 45 46 48 46 39 38 41 36 37 39 40 42 42 41 40 35 34 36 36 35 39 31 37 37 33 29 29 24 19 21 21 16 18 12 19
49 52 50 50 54 54 56 51 49 50 50 48 44 46 47 44 41 42 41 43 44 44 44 44 43 40 36 38 40 40 34 36 40 40 33 28 28 23 20 24 23 19 21 14 14
41 44 45 45 49 55 54 52 54 49 48 43 44 47 46 48 47 46 44 46 47 48 48 46 45 40 38 44 42 40 39 39 39 41 37 29 26 20 20 25 28 27 20 20 16
34 39 39 38 44 47 48 51 46 45 40 36 39 46 50 51 50 48 47 49 52 51 51 51 49 47 42 42 41 43 44 42 45 44 41 36 29 21 21 24 27 28 23 21 21
35 36 34 33 40 38 41 39 41 38 33 35 37 44 48 53 51 51 44 46 49 53 55 55 55 53 49 44 46 47 47 46 45 46 44 42 31 22 29 29 29 31 29 28 22
39 38 36 31 30 31 34 33 34 33 30 33 33 32 35 46 55 49 43 46 44 48 52 55 55 56 58 53 50 53 51 50 48 47 47 44 35 24 31 30 31 30 28 26 24
44 36 34 28 28 29 31 31 31 30 27 27 27 27 27 27 35 56 49 45 47 44 48 47 49 57 58 58 53 54 55 52 51 49 50 44 41 30 30 33 29 34 36 35 35
44 43 42 37 32 30 30 27 30 32 30 27 29 29 31 27 29 35 57 49 49 48 52 45 51 51 60 56 53 53 54 54 53 53 49 49 47 40 34 31 33 34 36 36 35
41 44 44 40 33 28 29 31 30 30 27 28 29 30 30 30 31 30 31 45 55 51 47 52 55 50 46 47 51 54 46 55 56 55 53 51 49 43 39 37 38 38 39 37 31
Wind_Direction
268 265 264 263 258 254 254 254 252 253 254 253 249 251 255 261 264 265 270 274 281 280 289 288 293 289 292 304 311 312 325 315 327 320 309 325 342 333 330 334 331 324 323 317 297
263 264 259 258 257 255 253 252 252 249 251 249 246 248 253 256 261 261 267 272 279 281 284 283 284 286 285 299 304 316 326 312 323 309 319 331 5 353 344 355 341 337 336 336 307
260 257 259 253 255 253 248 248 250 249 247 244 244 246 252 253 254 259 258 264 272 279 279 274 278 277 283 292 302 322 325 312 309 313 316 320 355 358 357 351 356 350 349 351 331
260 249 253 251 258 255 241 243 246 245 245 245 245 246 251 251 253 254 256 262 268 276 281 275 274 269 277 280 301 318 322 316 288 286 288 328 318 334 334 354 354 357 353 350 355
266 258 249 252 252 254 243 239 242 246 246 248 249 246 250 251 250 247 248 253 259 266 274 271 266 265 269 279 295 306 314 304 272 269 254 306 331 317 347 353 354 8 5 355 340
263 260 259 257 251 246 249 247 254 240 249 250 252 250 247 249 244 249 246 249 253 256 263 265 259 263 260 266 280 288 307 292 258 241 235 311 308 296 337 352 355 8 13 2 30
265 259 256 260 252 249 247 246 241 238 246 249 254 256 250 245 244 245 244 243 245 250 253 259 260 259 242 252 262 284 299 288 260 251 213 285 338 288 327 347 329 15 22 10 21
265 260 255 254 254 249 247 246 243 241 245 250 252 257 252 244 247 240 239 244 243 244 246 254 252 261 244 252 264 278 282 282 266 257 234 258 253 325 333 312 320 18 33 23 27
263 260 255 252 252 249 247 251 238 242 247 250 253 254 244 242 244 241 235 241 242 242 246 249 250 259 255 248 257 269 276 277 274 267 218 216 225 248 345 313 303 22 24 28 24
291 249 249 256 252 244 240 247 241 246 253 249 251 248 241 239 240 241 230 232 238 238 241 250 247 250 259 247 255 261 272 279 282 281 266 249 231 271 283 309 294 323 354 36 18
300 295 295 279 250 237 239 247 246 248 249 250 248 248 237 237 236 238 233 230 238 236 242 248 244 250 247 235 244 265 277 279 282 281 274 262 241 273 290 280 276 283 299 342 350
283 294 281 272 276 266 244 238 242 243 242 246 246 234 236 235 232 234 234 231 235 234 239 243 236 234 238 240 253 254 263 276 273 280 278 254 236 251 265 245 232 242 271 220 254
278 270 272 267 263 256 271 256 243 241 239 224 230 232 226 238 228 233 232 230 231 233 236 243 229 230 239 239 243 251 255 268 271 269 277 279 271 259 246 239 242 230 277 312 277
290 274 263 258 255 257 247 260 272 251 246 224 228 222 224 235 230 225 233 232 233 233 235 237 232 230 243 245 251 250 247 253 264 267 275 276 279 258 252 249 275 223 221 328 274
285 282 271 261 254 246 247 253 252 263 251 247 225 231 228 235 237 225 237 233 234 233 235 243 238 238 243 246 250 246 249 249 254 259 265 273 281 285 258 249 232 241 242 235 244
275 272 272 263 256 254 244 239 245 247 254 247 234 231 230 235 235 222 231 230 229 228 229 233 227 232 238 234 244 235 244 251 257 259 266 272 282 282 278 243 228 226 215 213 224
272 268 263 263 259 260 247 243 238 242 250 245 243 235 231 227 233 226 227 231 234 237 240 238 235 233 236 237 239 245 246 249 256 262 272 264 269 276 272 260 238 229 224 226 224
265 260 258 253 255 253 246 245 245 244 240 243 245 239 236 236 230 224 222 227 227 229 232 236 233 234 239 246 249 250 248 252 258 262 269 257 263 265 272 259 245 229 224 241 232
253 250 247 242 247 246 245 247 251 247 242 240 244 244 236 233 235 230 224 227 225 229 234 236 237 230 233 238 236 241 245 254 255 256 257 250 260 265 271 256 245 234 239 254 237
247 245 239 236 238 240 242 244 243 242 240 236 237 242 243 239 233 232 229 231 230 226 228 231 234 231 231 236 233 233 239 244 248 253 258 257 258 265 262 251 255 247 252 243 239
250 248 236 235 231 233 239 240 240 239 240 232 231 234 236 240 239 234 233 233 233 235 231 233 232 229 225 230 234 234 230 238 244 248 253 257 254 247 258 248 253 257 260 228 241
245 252 239 234 235 232 232 235 237 235 237 231 227 225 229 234 235 235 232 230 234 234 235 234 232 232 226 221 228 232 234 230 241 247 256 257 247 253 251 250 248 259 262 250 262
239 245 245 236 235 233 237 240 239 233 220 219 218 223 220 226 231 235 231 229 229 235 236 237 236 234 226 222 225 229 234 236 237 245 250 252 255 245 250 254 254 254 256 263 259
235 237 236 235 228 223 230 231 231 225 223 221 217 217 216 218 226 225 224 228 234 232 236 236 236 235 234 226 224 228 227 230 236 241 247 253 259 249 244 251 259 256 253 263 263
232 231 233 235 229 228 232 227 228 225 223 222 209 210 206 205 222 227 225 224 226 226 226 231 239 239 236 236 228 227 230 228 233 238 246 255 252 249 249 249 253 257 253 259 257
230 231 237 239 240 237 233 220 217 220 217 212 198 208 212 207 214 220 222 226 230 231 233 219 226 235 236 239 239 229 230 234 232 236 238 246 250 246 243 254 252 259 259 262 260
229 231 235 237 237 231 222 220 215 213 214 208 214 214 216 218 218 219 225 229 233 235 235 243 250 239 228 237 241 236 229 234 238 237 238 239 246 252 241 246 254 257 256 259 258